EW7452 Weather Reports


time (UTC)temp
F
wind
direction
speed
knots
gust
knots
rain 1hr
in
rain 24hr
in
rain mn
in
humidity
%
barometer
mb
20260507100013 43 301 6.1 9.6 0.00 0.00 0.00 85 1014.9
20260507094619 42 298 6.1 10.4 0.00 0.00 0.00 87 1014.9
20260507093002 43 274 14.8 16.5 0.00 0.00 0.00 84 1015.2
20260507091502 43 277 8.7 10.4 0.00 0.00 0.00 83 1015.1
20260507090012 43 270 9.6 12.2 0.00 0.00 0.00 83 1015.0
20260507084502 43 253 11.3 13.9 0.00 0.00 0.00 81 1015.1
20260507083010 43 246 13.9 16.5 0.00 0.00 0.00 80 1015.0
20260507081604 43 248 15.6 18.2 0.00 0.00 0.00 81 1014.9
20260507080110 43 274 13.0 16.5 0.00 0.00 0.00 83 1014.8
20260507074523 42 280 13.0 17.4 0.00 0.00 0.00 84 1014.7
20260507073102 42 297 13.0 19.1 0.00 0.00 0.00 84 1014.4
20260507071510 42 312 12.2 17.4 0.00 0.00 0.00 85 1014.3
20260507070003 42 295 12.2 15.6 0.00 0.00 0.00 86 1014.3
20260507064609 42 290 13.9 18.2 0.00 0.00 0.00 85 1014.1
20260507063010 43 285 13.9 18.2 0.00 0.00 0.00 82 1014.0
20260507061601 43 271 13.9 18.2 0.00 0.00 0.00 81 1013.9
20260507060010 43 269 9.6 13.9 0.00 0.00 0.00 80 1014.0
20260507054601 43 214 6.1 7.8 0.00 0.00 0.00 80 1013.8
20260507053011 42 215 6.1 7.0 0.00 0.00 0.00 80 1013.7
20260507051501 43 220 7.8 10.4 0.00 0.00 0.00 78 1013.6
20260507050110 43 216 7.8 9.6 0.00 0.00 0.00 80 1013.6
20260507044609 42 217 7.8 10.4 0.00 0.00 0.00 82 1013.5
20260507043113 42 216 8.7 10.4 0.00 0.00 0.00 82 1013.4
20260507041604 40 215 9.6 13.0 0.00 0.00 0.00 83 1013.2
20260507040105 39 219 9.6 13.0 0.00 0.00 0.00 85 1013.1
20260507034609 38 215 10.4 13.0 0.00 0.00 0.00 85 1013.1
20260507033100 37 208 8.7 10.4 0.00 0.00 0.00 86 1013.0
20260507031610 37 199 8.7 13.0 0.00 0.00 0.00 85 1013.0
20260507030001 38 196 7.8 10.4 0.00 0.00 0.00 88 1012.8
20260507024502 37 199 8.7 10.4 0.00 0.00 0.00 88 1012.8
20260507023101 38 199 7.8 12.2 0.00 0.00 0.00 88 1012.9
20260507021501 38 208 8.7 12.2 0.00 0.00 0.00 88 1013.0
20260507020121 38 216 9.6 12.2 0.00 0.00 0.00 88 1012.9
20260507014504 38 216 10.4 13.9 0.00 0.00 0.00 88 1012.7
20260507013110 38 217 10.4 13.0 0.00 0.00 0.00 87 1012.7
20260507011521 39 214 7.8 13.0 0.00 0.00 0.00 86 1012.6
20260507010008 40 225 12.2 16.5 0.00 0.00 0.00 86 1012.5
20260507004600 40 220 12.2 17.4 0.00 0.00 0.00 87 1012.3
20260507001603 40 234 13.9 16.5 0.00 0.00 0.00 87 1012.3
20260507000110 40 229 13.0 15.6 0.00 0.00 0.00 87 1012.2
20260506234621 40 236 11.3 14.8 0.00 0.00 0.00 86 1012.2
20260506233012 40 229 13.0 16.5 0.00 0.00 0.00 86 1012.2
20260506230103 40 247 14.8 17.4 0.00 0.00 0.00 86 1012.0
20260506224502 40 251 14.8 17.4 0.00 0.00 0.00 85 1011.9
20260506223002 40 239 13.9 18.2 0.00 0.00 0.00 84 1011.8
20260506221612 40 246 15.6 19.1 0.00 0.00 0.00 84 1011.7
20260506220110 40 250 15.6 19.1 0.00 0.00 0.00 84 1011.5
20260506214502 40 255 15.6 20.9 0.00 0.00 0.00 84 1011.4
20260506213001 40 248 15.6 20.0 0.00 0.00 0.00 84 1011.3
20260506211601 40 253 14.8 18.2 0.00 0.00 0.00 84 1011.4
20260506210014 40 248 9.6 11.3 0.00 0.00 0.00 86 1011.4
20260506203008 40 229 13.9 15.6 0.00 0.00 0.00 85 1011.3
20260506201502 41 236 13.9 16.5 0.00 0.00 0.00 84 1011.4
20260506194512 41 235 13.9 17.4 0.00 0.00 0.00 82 1011.2
20260506193103 41 227 12.2 14.8 0.00 0.00 0.00 83 1011.2
20260506191601 41 235 13.0 15.6 0.00 0.00 0.00 79 1011.1
20260506190002 41 242 12.2 18.2 0.00 0.00 0.00 78 1011.1
20260506184511 42 245 14.8 17.4 0.00 0.00 0.00 77 1010.9
20260506183002 42 247 14.8 17.4 0.00 0.00 0.00 78 1010.7
20260506181602 42 245 13.9 18.2 0.00 0.00 0.00 78 1010.6
20260506174501 42 248 14.8 17.4 0.00 0.00 0.00 80 1010.5
20260506173002 42 246 13.9 17.4 0.00 0.00 0.00 80 1010.5
20260506171549 42 245 14.8 19.1 0.00 0.00 0.00 79 1010.4
20260506164602 43 252 15.6 18.2 0.00 0.00 0.00 79 1010.3
20260506163103 43 253 16.5 20.9 0.00 0.00 0.00 80 1010.1
20260506161612 43 251 17.4 20.0 0.00 0.00 0.00 80 1010.1
20260506160111 43 249 19.1 22.6 0.00 0.00 0.00 80 1010.0
20260506154511 43 255 15.6 18.2 0.00 0.00 0.00 80 1009.9
20260506153002 43 253 18.2 22.6 0.00 0.00 0.00 79 1009.9
20260506151502 43 262 19.1 23.5 0.00 0.00 0.00 79 1009.8
20260506150002 43 259 17.4 20.9 0.00 0.00 0.00 79 1009.8
20260506144613 43 259 14.8 20.0 0.00 0.00 0.00 80 1009.8
20260506143012 44 261 16.5 20.0 0.00 0.00 0.00 78 1009.8
20260506141503 44 262 15.6 20.0 0.00 0.00 0.00 77 1009.8
20260506140004 44 259 18.2 20.9 0.00 0.00 0.00 76 1009.7
20260506134602 44 258 16.5 20.0 0.00 0.00 0.00 77 1009.7
20260506133012 44 260 14.8 18.2 0.00 0.00 0.00 77 1009.6
20260506131604 44 256 14.8 20.9 0.00 0.00 0.00 77 1009.4
20260506130140 43 259 16.5 20.9 0.00 0.00 0.00 76 1009.3
20260506124534 43 259 16.5 20.0 0.00 0.00 0.00 78 1009.3
20260506123015 42 258 17.4 20.0 0.00 0.00 0.00 79 1009.2
20260506121602 42 256 17.4 20.0 0.00 0.00 0.00 80 1009.1
20260506120022 42 255 15.6 20.9 0.00 0.00 0.00 79 1009.0
20260506114502 42 260 17.4 20.9 0.00 0.00 0.00 80 1008.9
20260506113102 42 260 16.5 21.7 0.00 0.00 0.00 79 1008.8
20260506111601 42 255 17.4 20.9 0.00 0.00 0.00 78 1008.5
20260506110013 42 258 18.2 20.9 0.00 0.00 0.00 77 1008.3
20260506104522 42 263 15.6 20.9 0.00 0.00 0.00 78 1008.2
20260506103002 42 260 17.4 20.9 0.00 0.00 0.00 78 1008.1
20260506101502 42 265 18.2 22.6 0.00 0.00 0.00 77 1007.9